Regional Weather Roundup
Issued by NWS

Home | Current Version | Previous Version | Text Only | Print | Product List | Glossary Off
Versions: 1 2 3 4 5 6 7 8 9 10 11 12 13 14 15 16 17 18 19 20 21 22 23 24 25 26 27 28 29 30 31 32 33 34 35 36 37 38 39 40 41 42 43 44 45 46 47 48 49 50

000
ASUS43 KIND 300709
RWRIN

WEATHER ROUNDUP FOR INDIANA
NATIONAL WEATHER SERVICE INDIANAPOLIS IN
300 AM EDT THU JUL 30 2015

NOTE: "FAIR" INDICATES FEW OR NO CLOUDS BELOW 12,000 FEET WITH NO
SIGNIFICANT WEATHER AND/OR OBSTRUCTIONS TO VISIBILITY.

* - STATION DOES NOT REPORT WEATHER SUCH AS PRECIPITATION OR FOG.

+ - STATION NOT QUALITY CONTROLLED BY THE NATIONAL WEATHER SERVICE.
    USE DATA WITH CAUTION...ESPECIALLY DEWPOINT AND RELATIVE
    HUMIDITY OBSERVATIONS.

INZ001>003-010>013-019-020-300800-
NORTHWEST INDIANA

CITY           SKY/WX    TMP DP  RH WIND       PRES   REMARKS
GARY /AIRPORT/ CLEAR     69  59  72 W5        30.02F
KNOX *+        CLEAR     64  55  72 W7        30.01S
LA PORTE +     CLEAR     67  58  72 W5        30.01S
MICHIGAN CITY+ CLEAR     64  57  77 SW5       30.01S
MONTICELLO +   CLEAR     65  61  86 W5        30.02S
RENSSELAER +   CLEAR     64  61  88 W6        30.04S
VALPARAISO     CLEAR     67  58  72 W8        30.02F

$$

LMZ046-743>745-300800-
SOUTHERN LAKE MICHIGAN

STATION/POSITION TIME  TEMP    WIND        PRES    WAVE
                       AIR SEA DIR/SP/G            HT
                 (UTC) (F)     (DEG/KT/KT) (MB)    (FT)
BURNS HARBOR     0600   74     260/ 11/ 14 1016.9S
MICHIGAN CITY    0600   74     230/ 17/ 18   N/A
5NW MICH CITY    0700   75 73  290/ 12/ 16   N/A     3

$$

INZ004-005-014>016-021>024-300800-
NORTH CENTRAL INDIANA

CITY           SKY/WX    TMP DP  RH WIND       PRES   REMARKS
GOSHEN         CLEAR     64  57  78 W5        29.99F
LOGANSPORT +   CLEAR     61  55  82 W6        30.03F
PERU/GRISSOM   CLEAR     63  58  86 W6        30.02S
ROCHESTER +    CLEAR     68  59  73 W6        30.02S
SOUTH BEND     CLEAR     64  58  80 SW3       30.01S
WARSAW +       PTCLDY    64  57  77 W6        30.01S

$$

INZ006>009-017-018-025>027-300800-
NORTHEAST INDIANA

CITY           SKY/WX    TMP DP  RH WIND       PRES   REMARKS
ANGOLA *+      CLEAR     66  57  72 W5        29.98F
AUBURN +       PTCLDY    64  57  77 CALM      30.00S
FORT WAYNE     PTCLDY    65  60  84 W8        30.00F
HUNTINGTON +   PTCLDY    65  60  85 W5        30.01S

$$

INZ028-029-035-036-043>045-051>053-300800-
WEST CENTRAL INDIANA

CITY           SKY/WX    TMP DP  RH WIND       PRES   REMARKS
CRAWFORDSVL +  CLEAR     61  60  94 CALM        N/A
GREENCASTLE +  CLEAR     68  55  64 NW3       30.06F
LAFAYETTE      CLEAR     62  61  96 W3        30.04S
TERRE HAUTE    CLEAR     66  60  81 NW3       30.06S

$$

INZ030>032-037>040-046>048-054>057-064-065-300800-
CENTRAL INDIANA

CITY           SKY/WX    TMP DP  RH WIND       PRES   REMARKS
FRANKFORT +    CLEAR    N/A N/A N/A CALM      30.06S
INDIANAPOLIS   MOCLDY    68  59  73 W5        30.04S
-EAGLE CREEK   PTCLDY    69  60  73 NW8       30.04S
KOKOMO *+      PTCLDY    64  57  77 W7        30.04S
MARION +       PTCLDY    63  60  90 W3        30.03F
MT COMFORT *+  PTCLDY    68  59  73 NW8       30.04F
SHELBYVILLE    MOCLDY    69  61  75 NW3       30.03S
ZIONSVILLE +   CLEAR     65  59  80 NW3       30.06S

$$

INZ033-034-041-042-049-050-058-059-300800-
EAST CENTRAL INDIANA

CITY           SKY/WX    TMP DP  RH WIND       PRES   REMARKS
MUNCIE         PTCLDY    66  60  81 W6        30.03S

$$

INZ060-061-067>069-081>083-085>088-300800-
SOUTHWEST INDIANA

CITY           SKY/WX    TMP DP  RH WIND       PRES   REMARKS
EVANSVILLE     PTCLDY    74  64  71 N7        30.06S
HUNTINGBURG *+ PTCLDY    72  63  73 N6        30.05S
WASHINGTON +   PTCLDY    66  62  84 NW3       30.05S

$$

INZ062-063-066-070>080-084-089>092-300800-
SOUTH CENTRAL AND SOUTHEAST INDIANA

CITY           SKY/WX    TMP DP  RH WIND       PRES   REMARKS
BLOOMINGTON    PTCLDY    69  61  75 CALM      30.06S
MADISON *+     MOCLDY    70  64  83 CALM      30.05S
NORTH VERNON + MOCLDY    70  64  83 NW3       30.04S
SEYMOUR +      MOCLDY    72  64  78 NW7       30.03S

$$




USA.gov is the U.S. government's official web portal to all federal, state and local government web resources and services.